Total_Precipitation_Accumulation
0.64 0.62 0.50 0.43 0.38 0.36 0.30 0.27 0.25 0.24 0.23 0.22 0.20 0.17 0.16 0.16 0.14 0.14 0.13 0.12 0.12 0.15 0.21 0.29 0.32 0.34 0.39 0.42 0.43 0.44 0.42 0.40 0.38 0.38 0.38 0.37 0.36 0.35 0.36 0.36 0.36 0.36 0.38
0.75 0.73 0.70 0.61 0.54 0.52 0.46 0.36 0.30 0.28 0.27 0.24 0.22 0.20 0.19 0.18 0.16 0.14 0.11 0.10 0.10 0.10 0.15 0.25 0.38 0.45 0.49 0.55 0.58 0.58 0.54 0.50 0.48 0.46 0.45 0.44 0.43 0.42 0.41 0.42 0.41 0.42 0.44
0.87 0.85 0.79 0.72 0.62 0.64 0.64 0.58 0.47 0.38 0.34 0.29 0.24 0.21 0.20 0.19 0.19 0.18 0.16 0.14 0.11 0.10 0.11 0.18 0.32 0.45 0.51 0.56 0.62 0.67 0.65 0.58 0.55 0.53 0.53 0.52 0.50 0.47 0.47 0.49 0.49 0.50 0.50
0.95 0.95 0.88 0.81 0.76 0.71 0.67 0.62 0.58 0.49 0.43 0.40 0.36 0.31 0.27 0.22 0.18 0.17 0.17 0.18 0.18 0.15 0.13 0.17 0.23 0.31 0.40 0.48 0.60 0.74 0.83 0.78 0.68 0.62 0.61 0.62 0.62 0.60 0.59 0.59 0.58 0.57 0.56
1.07 1.02 0.93 0.84 0.91 0.89 0.77 0.71 0.62 0.55 0.46 0.39 0.36 0.34 0.32 0.28 0.25 0.22 0.19 0.17 0.17 0.17 0.17 0.17 0.20 0.23 0.29 0.36 0.51 0.70 0.85 0.92 0.88 0.79 0.74 0.71 0.72 0.74 0.75 0.75 0.72 0.71 0.73
1.14 1.14 1.07 0.98 0.98 0.99 0.91 0.80 0.70 0.60 0.51 0.48 0.44 0.38 0.34 0.33 0.30 0.27 0.27 0.23 0.20 0.18 0.18 0.17 0.17 0.19 0.22 0.30 0.40 0.53 0.71 0.86 0.94 0.95 0.92 0.90 0.89 0.91 0.95 0.96 0.95 0.95 0.97
1.15 1.19 1.17 1.09 1.05 0.98 0.96 0.90 0.82 0.75 0.64 0.58 0.55 0.42 0.32 0.29 0.27 0.24 0.24 0.24 0.24 0.24 0.23 0.22 0.22 0.22 0.22 0.26 0.31 0.37 0.46 0.60 0.75 0.88 0.94 0.96 1.00 1.03 1.04 1.09 1.13 1.12 1.16
1.23 1.16 1.18 1.20 1.18 1.11 1.05 1.01 0.96 0.89 0.80 0.76 0.72 0.67 0.48 0.34 0.27 0.25 0.22 0.21 0.23 0.25 0.27 0.29 0.30 0.30 0.29 0.29 0.28 0.30 0.33 0.43 0.63 0.88 1.02 1.06 1.13 1.16 1.20 1.25 1.31 1.37 1.44
1.37 1.25 1.20 1.27 1.26 1.23 1.19 1.21 1.23 1.17 1.07 1.02 0.95 0.97 0.78 0.50 0.35 0.30 0.31 0.29 0.28 0.28 0.29 0.31 0.32 0.32 0.33 0.34 0.32 0.33 0.37 0.43 0.59 0.86 1.08 1.19 1.26 1.32 1.40 1.48 1.56 1.65 1.69
1.45 1.42 1.36 1.32 1.31 1.28 1.23 1.28 1.39 1.43 1.39 1.28 1.17 1.05 0.94 0.76 0.65 0.46 0.33 0.33 0.34 0.33 0.36 0.36 0.36 0.36 0.34 0.35 0.38 0.41 0.47 0.54 0.67 0.89 1.18 1.40 1.51 1.63 1.76 1.86 1.93 2.01 1.96
1.48 1.43 1.38 1.34 1.27 1.26 1.27 1.27 1.32 1.42 1.45 1.36 1.25 1.17 1.10 0.93 0.77 0.70 0.49 0.34 0.35 0.35 0.34 0.34 0.33 0.33 0.35 0.37 0.42 0.50 0.62 0.70 0.82 1.01 1.33 1.63 1.83 2.03 2.20 2.33 2.41 2.44 2.36
1.43 1.39 1.34 1.30 1.24 1.19 1.19 1.24 1.30 1.37 1.42 1.37 1.28 1.15 1.10 1.03 0.88 0.84 0.74 0.54 0.47 0.42 0.39 0.37 0.37 0.38 0.41 0.46 0.54 0.67 0.73 0.80 0.93 1.14 1.48 1.73 1.91 2.14 2.27 2.41 2.51 2.53 2.54
1.32 1.22 1.21 1.19 1.19 1.15 1.16 1.22 1.26 1.25 1.30 1.30 1.27 1.19 1.11 0.99 0.92 0.96 0.97 0.83 0.69 0.55 0.49 0.46 0.46 0.50 0.56 0.63 0.69 0.81 0.81 0.84 0.92 1.06 1.33 1.59 1.68 1.77 1.92 2.16 2.39 2.49 2.50
1.40 1.31 1.25 1.22 1.24 1.23 1.19 1.18 1.17 1.15 1.16 1.19 1.20 1.18 1.14 1.05 0.99 1.01 1.06 1.15 1.11 0.88 0.74 0.66 0.64 0.68 0.74 0.78 0.85 0.93 0.84 0.91 0.91 0.94 1.09 1.28 1.33 1.34 1.39 1.55 1.79 1.98 2.12
1.30 1.27 1.29 1.27 1.24 1.25 1.23 1.20 1.16 1.08 1.05 1.05 1.05 1.06 1.04 0.99 1.00 1.05 1.14 1.29 1.46 1.37 1.07 0.85 0.83 0.85 0.87 0.87 0.91 0.82 0.72 0.84 0.86 0.85 0.90 0.98 1.02 1.00 1.00 1.13 1.27 1.36 1.48
1.10 1.10 1.14 1.16 1.14 1.13 1.15 1.14 1.11 1.05 1.00 0.95 0.94 0.99 0.99 0.96 0.98 1.03 1.11 1.21 1.36 1.50 1.34 0.97 0.82 0.79 0.80 0.78 0.83 0.71 0.64 0.76 0.73 0.73 0.76 0.80 0.85 0.84 0.85 0.93 1.01 1.06 1.07
0.99 1.00 1.00 1.00 1.02 1.02 1.02 1.04 1.03 1.00 0.96 0.89 0.83 0.86 0.89 0.89 0.92 0.95 1.00 1.07 1.14 1.23 1.25 0.98 0.77 0.72 0.72 0.68 0.67 0.60 0.55 0.54 0.53 0.64 0.65 0.67 0.67 0.68 0.73 0.79 0.85 0.90 0.93
0.79 0.84 0.85 0.83 0.82 0.83 0.84 0.87 0.89 0.88 0.89 0.85 0.79 0.76 0.76 0.77 0.82 0.84 0.90 0.94 0.96 0.97 1.01 0.91 0.73 0.64 0.60 0.55 0.50 0.46 0.43 0.42 0.40 0.49 0.51 0.52 0.54 0.54 0.55 0.58 0.66 0.71 0.75
0.62 0.66 0.68 0.68 0.68 0.66 0.65 0.68 0.71 0.71 0.71 0.74 0.74 0.74 0.72 0.75 0.81 0.84 0.85 0.83 0.80 0.79 0.81 0.80 0.66 0.54 0.49 0.46 0.46 0.42 0.36 0.33 0.30 0.35 0.39 0.39 0.41 0.44 0.48 0.50 0.52 0.55 0.56
0.53 0.56 0.59 0.60 0.61 0.62 0.63 0.64 0.66 0.70 0.72 0.73 0.76 0.81 0.82 0.82 0.81 0.80 0.81 0.81 0.80 0.81 0.78 0.79 0.75 0.64 0.55 0.48 0.47 0.44 0.40 0.35 0.31 0.29 0.35 0.38 0.41 0.44 0.45 0.44 0.41 0.39 0.39
0.51 0.53 0.57 0.59 0.62 0.65 0.70 0.74 0.77 0.85 0.93 0.97 0.96 0.94 0.93 0.95 0.92 0.86 0.81 0.80 0.81 0.86 0.89 0.91 0.85 0.71 0.58 0.50 0.47 0.42 0.43 0.42 0.41 0.38 0.37 0.35 0.35 0.34 0.35 0.37 0.38 0.38 0.38
0.56 0.55 0.59 0.63 0.68 0.74 0.91 0.93 0.86 0.88 0.96 0.97 0.94 0.88 0.84 0.85 0.82 0.83 0.80 0.78 0.83 0.92 1.01 1.01 0.89 0.70 0.50 0.42 0.43 0.50 0.58 0.68 0.62 0.41 0.40 0.38 0.34 0.35 0.32 0.31 0.35 0.39 0.43
0.66 0.68 0.72 0.78 0.84 0.90 0.96 0.89 0.88 0.80 0.81 0.79 0.76 0.74 0.70 0.68 0.70 0.65 0.71 0.80 0.84 0.91 0.90 0.82 0.73 0.59 0.52 0.47 0.58 0.72 0.72 0.70 0.55 0.38 0.44 0.49 0.41 0.40 0.36 0.37 0.44 0.44 0.45
0.84 0.90 0.94 0.97 0.98 0.99 0.94 0.80 0.74 0.66 0.66 0.65 0.63 0.63 0.61 0.60 0.59 0.63 0.70 0.78 0.71 0.66 0.65 0.61 0.59 0.57 0.55 0.55 0.68 0.82 0.80 0.75 0.61 0.51 0.52 0.62 0.50 0.44 0.39 0.38 0.44 0.45 0.46
1.02 1.00 0.98 0.92 0.86 0.82 0.77 0.65 0.58 0.51 0.51 0.51 0.50 0.53 0.57 0.54 0.61 0.75 0.80 0.76 0.61 0.53 0.56 0.62 0.65 0.63 0.64 0.65 0.67 0.82 0.95 1.00 0.86 0.60 0.50 0.58 0.51 0.47 0.46 0.43 0.41 0.46 0.46
0.92 0.86 0.79 0.73 0.65 0.58 0.57 0.52 0.47 0.41 0.40 0.39 0.40 0.42 0.49 0.52 0.65 0.77 0.68 0.63 0.57 0.51 0.53 0.54 0.54 0.54 0.52 0.55 0.64 0.73 1.01 1.30 1.08 0.77 0.47 0.61 0.62 0.66 0.78 0.49 0.41 0.44 0.48